BTK556 WADD-WATO

Flight info

Callsign BTK556
Flight time 0h 55m
Altitude 33000
Route DCT PEBGU W42 NMA W69 HUMAI HUMAI2A
Aircraft A20N/M-SDE2E3FGHIRWXY/LB1

Departure

Time 2026-05-08 07:50
Airport Denpasar I Gusti Ngurah Rai International Airport (WADD)

Arrival

Time 2026-05-08 08:46
Airport Komodo Airport (WATO)
Time Latitude Longitude Altitude Speed Heading
2026-05-08 07:20 -8.75075 115.16840 17 ft 0 kts 179°
2026-05-08 07:41 -8.75071 115.16840 17 ft 2 kts 179°
2026-05-08 07:42 -8.75056 115.16839 17 ft 2 kts 179°
2026-05-08 07:42 -8.75042 115.16839 18 ft 2 kts 179°
2026-05-08 07:42 -8.75027 115.16838 18 ft 2 kts 179°
2026-05-08 07:42 -8.75017 115.16838 18 ft 2 kts 178°
2026-05-08 07:43 -8.75004 115.16843 18 ft 2 kts 232°
2026-05-08 07:43 -8.75000 115.16853 18 ft 1 kts 270°
2026-05-08 07:43 -8.75000 115.16859 18 ft 0 kts 268°
2026-05-08 07:44 -8.75001 115.16852 18 ft 3 kts 268°
2026-05-08 07:45 -8.75003 115.16799 18 ft 11 kts 267°
2026-05-08 07:45 -8.75009 115.16661 18 ft 27 kts 268°
2026-05-08 07:45 -8.74983 115.16481 18 ft 25 kts 322°
2026-05-08 07:45 -8.74870 115.16466 18 ft 13 kts 340°
2026-05-08 07:46 -8.74822 115.16386 19 ft 13 kts 291°
2026-05-08 07:46 -8.74780 115.16299 19 ft 13 kts 298°
2026-05-08 07:46 -8.74709 115.16276 20 ft 10 kts 342°
2026-05-08 07:46 -8.74692 115.16231 19 ft 8 kts 263°
2026-05-08 07:47 -8.74697 115.16162 18 ft 11 kts 266°
2026-05-08 07:47 -8.74702 115.16068 17 ft 15 kts 268°
2026-05-08 07:47 -8.74706 115.15949 15 ft 19 kts 267°
2026-05-08 07:47 -8.74715 115.15801 15 ft 22 kts 266°
2026-05-08 07:48 -8.74721 115.15627 15 ft 25 kts 268°
2026-05-08 07:48 -8.74727 115.15460 15 ft 12 kts 269°
2026-05-08 07:48 -8.74769 115.15389 15 ft 13 kts 194°
2026-05-08 07:48 -8.74863 115.15395 15 ft 13 kts 164°
2026-05-08 07:49 -8.74894 115.15434 15 ft 4 kts 82°
2026-05-08 07:49 -8.74893 115.15440 15 ft 1 kts 86°
2026-05-08 07:49 -8.74892 115.15472 15 ft 18 kts 88°
2026-05-08 07:49 -8.74878 115.15912 15 ft 103 kts 86°
2026-05-08 07:50 -8.74833 115.16889 20 ft 171 kts 87°
2026-05-08 07:50 -8.74772 115.17930 1113 ft 148 kts 86°
2026-05-08 07:50 -8.74704 115.18968 1859 ft 153 kts 89°
2026-05-08 07:50 -8.74667 115.20032 2690 ft 156 kts 89°
2026-05-08 07:51 -8.74634 115.21107 3251 ft 161 kts 88°
2026-05-08 07:51 -8.74595 115.22293 3644 ft 177 kts 88°
2026-05-08 07:51 -8.74554 115.23599 4057 ft 194 kts 88°
2026-05-08 07:51 -8.74512 115.25032 4476 ft 211 kts 88°
2026-05-08 07:52 -8.74461 115.26595 4800 ft 236 kts 88°
2026-05-08 07:52 -8.74399 115.28312 5288 ft 254 kts 88°
2026-05-08 07:52 -8.74328 115.30140 5846 ft 269 kts 87°
2026-05-08 07:52 -8.74252 115.32026 6639 ft 273 kts 87°
2026-05-08 07:53 -8.74173 115.33951 7462 ft 277 kts 87°
2026-05-08 07:53 -8.74092 115.35896 8231 ft 282 kts 87°
2026-05-08 07:53 -8.74009 115.37880 8740 ft 285 kts 87°
2026-05-08 07:53 -8.73924 115.39896 8983 ft 287 kts 87°
2026-05-08 07:54 -8.73840 115.41914 8999 ft 286 kts 87°
2026-05-08 07:54 -8.73756 115.43912 9006 ft 286 kts 87°
2026-05-08 07:54 -8.73673 115.45915 9009 ft 286 kts 87°
2026-05-08 07:54 -8.73588 115.47938 9010 ft 286 kts 87°
2026-05-08 07:55 -8.73406 115.49945 8998 ft 286 kts 75°
2026-05-08 07:55 -8.72608 115.51760 9000 ft 285 kts 54°
2026-05-08 07:55 -8.71298 115.53235 9010 ft 285 kts 45°
2026-05-08 07:55 -8.69872 115.54642 9010 ft 285 kts 44°
2026-05-08 07:56 -8.68450 115.56033 9011 ft 285 kts 44°
2026-05-08 07:56 -8.67037 115.57426 9011 ft 285 kts 44°
2026-05-08 07:56 -8.65623 115.58830 9011 ft 285 kts 45°
2026-05-08 07:56 -8.64218 115.60232 9011 ft 285 kts 45°
2026-05-08 07:57 -8.62803 115.61649 9011 ft 285 kts 45°
2026-05-08 07:57 -8.61406 115.63049 9011 ft 285 kts 45°
2026-05-08 07:57 -8.60010 115.64449 9011 ft 285 kts 45°
2026-05-08 07:57 -8.58614 115.65852 9012 ft 285 kts 45°
2026-05-08 07:58 -8.57220 115.67263 9011 ft 285 kts 45°
2026-05-08 07:58 -8.55872 115.68716 9001 ft 285 kts 54°
2026-05-08 07:58 -8.55044 115.70548 9016 ft 288 kts 78°
2026-05-08 07:58 -8.54910 115.72546 9414 ft 296 kts 89°
2026-05-08 07:59 -8.54946 115.74618 10336 ft 294 kts 90°
2026-05-08 07:59 -8.54990 115.76688 10908 ft 305 kts 90°
2026-05-08 07:59 -8.55031 115.78896 11274 ft 323 kts 90°
2026-05-08 07:59 -8.55068 115.81180 11856 ft 332 kts 90°
2026-05-08 08:00 -8.55102 115.83524 12606 ft 335 kts 90°
2026-05-08 08:00 -8.55131 115.85877 13341 ft 338 kts 90°
2026-05-08 08:00 -8.55157 115.88241 14058 ft 342 kts 90°
2026-05-08 08:00 -8.55183 115.90650 14770 ft 345 kts 90°
2026-05-08 08:01 -8.55210 115.93058 15462 ft 348 kts 90°
2026-05-08 08:01 -8.55239 115.95531 16157 ft 351 kts 90°
2026-05-08 08:01 -8.55265 115.97973 16827 ft 354 kts 90°
2026-05-08 08:01 -8.55292 116.00492 17502 ft 358 kts 90°
2026-05-08 08:02 -8.55317 116.02991 18158 ft 361 kts 90°
2026-05-08 08:02 -8.55342 116.05529 18807 ft 364 kts 90°
2026-05-08 08:02 -8.55368 116.08106 19448 ft 367 kts 90°
2026-05-08 08:02 -8.55394 116.10686 20072 ft 370 kts 90°
2026-05-08 08:03 -8.55424 116.13260 20682 ft 373 kts 90°
2026-05-08 08:03 -8.55457 116.15896 21293 ft 376 kts 90°
2026-05-08 08:03 -8.55490 116.18523 21880 ft 379 kts 90°
2026-05-08 08:03 -8.55523 116.21191 22456 ft 382 kts 90°
2026-05-08 08:04 -8.55555 116.23877 23015 ft 385 kts 90°
2026-05-08 08:04 -8.55586 116.26577 23557 ft 388 kts 90°
2026-05-08 08:04 -8.55617 116.29291 24083 ft 390 kts 90°
2026-05-08 08:04 -8.55649 116.32027 24595 ft 393 kts 90°
2026-05-08 08:05 -8.55681 116.34813 25095 ft 396 kts 91°
2026-05-08 08:05 -8.55713 116.37569 25572 ft 399 kts 91°
2026-05-08 08:05 -8.55747 116.40394 26046 ft 401 kts 91°
2026-05-08 08:05 -8.55779 116.43213 26499 ft 404 kts 91°
2026-05-08 08:06 -8.55809 116.46046 26937 ft 406 kts 91°
2026-05-08 08:06 -8.55839 116.48898 27361 ft 409 kts 91°
2026-05-08 08:06 -8.55868 116.51760 27775 ft 411 kts 91°
2026-05-08 08:06 -8.55897 116.54663 28181 ft 414 kts 91°
2026-05-08 08:07 -8.55924 116.57547 28567 ft 416 kts 91°
2026-05-08 08:07 -8.55952 116.60468 28987 ft 417 kts 91°
2026-05-08 08:07 -8.55980 116.63419 29514 ft 416 kts 91°
2026-05-08 08:07 -8.56007 116.66290 30037 ft 414 kts 91°
2026-05-08 08:08 -8.56034 116.69212 30542 ft 412 kts 91°
2026-05-08 08:08 -8.56061 116.72092 31014 ft 411 kts 91°
2026-05-08 08:08 -8.56085 116.74945 31436 ft 411 kts 91°
2026-05-08 08:08 -8.56110 116.77856 31800 ft 412 kts 91°
2026-05-08 08:09 -8.56134 116.80755 32129 ft 414 kts 91°
2026-05-08 08:09 -8.56158 116.83640 32448 ft 415 kts 91°
2026-05-08 08:09 -8.56182 116.86574 32747 ft 417 kts 91°
2026-05-08 08:10 -8.56232 116.92426 32815 ft 418 kts 91°
2026-05-08 08:10 -8.56281 116.98289 32820 ft 419 kts 91°
2026-05-08 08:11 -8.56236 117.04157 32821 ft 419 kts 87°
2026-05-08 08:11 -8.55606 117.10015 32821 ft 419 kts 80°
2026-05-08 08:12 -8.54317 117.15752 32822 ft 420 kts 75°
2026-05-08 08:12 -8.52737 117.21420 32822 ft 420 kts 74°
2026-05-08 08:13 -8.51164 117.27062 32822 ft 420 kts 75°
2026-05-08 08:13 -8.49597 117.32719 32822 ft 420 kts 75°
2026-05-08 08:14 -8.48379 117.38476 32822 ft 420 kts 82°
2026-05-08 08:14 -8.47819 117.44356 32822 ft 420 kts 88°
2026-05-08 08:15 -8.47905 117.50217 32823 ft 420 kts 92°
2026-05-08 08:15 -8.48196 117.56110 32822 ft 420 kts 93°
2026-05-08 08:16 -8.48484 117.61985 32822 ft 420 kts 93°
2026-05-08 08:16 -8.48766 117.67860 32822 ft 420 kts 92°
2026-05-08 08:17 -8.49044 117.73713 32822 ft 420 kts 92°
2026-05-08 08:17 -8.49322 117.79593 32822 ft 420 kts 92°
2026-05-08 08:18 -8.49601 117.85502 32822 ft 420 kts 92°
2026-05-08 08:18 -8.49876 117.91362 32822 ft 419 kts 92°
2026-05-08 08:19 -8.50151 117.97218 32822 ft 419 kts 92°
2026-05-08 08:19 -8.50425 118.03085 32822 ft 420 kts 92°
2026-05-08 08:20 -8.50699 118.08971 32822 ft 420 kts 92°
2026-05-08 08:20 -8.50973 118.14870 32822 ft 421 kts 92°
2026-05-08 08:21 -8.51242 118.20682 32822 ft 421 kts 92°
2026-05-08 08:21 -8.51378 118.23641 32690 ft 419 kts 92°
2026-05-08 08:21 -8.51515 118.26608 31931 ft 426 kts 92°
2026-05-08 08:21 -8.51656 118.29604 30947 ft 434 kts 92°
2026-05-08 08:22 -8.51800 118.32636 30137 ft 437 kts 93°
2026-05-08 08:22 -8.51946 118.35678 29341 ft 440 kts 92°
2026-05-08 08:22 -8.52092 118.38788 28597 ft 440 kts 92°
2026-05-08 08:22 -8.52233 118.41824 28086 ft 435 kts 92°
2026-05-08 08:23 -8.52371 118.44862 27627 ft 428 kts 92°
2026-05-08 08:23 -8.52505 118.47827 27178 ft 423 kts 92°
2026-05-08 08:23 -8.52635 118.50771 26728 ft 417 kts 92°
2026-05-08 08:23 -8.52762 118.53648 26289 ft 412 kts 92°
2026-05-08 08:24 -8.52889 118.56543 25844 ft 407 kts 92°
2026-05-08 08:24 -8.53014 118.59384 25405 ft 403 kts 92°
2026-05-08 08:24 -8.53137 118.62161 24972 ft 399 kts 92°
2026-05-08 08:24 -8.53262 118.64958 24534 ft 395 kts 92°
2026-05-08 08:25 -8.53281 118.67714 24100 ft 392 kts 87°
2026-05-08 08:25 -8.53047 118.70422 23669 ft 388 kts 82°
2026-05-08 08:25 -8.52557 118.73122 23232 ft 385 kts 77°
2026-05-08 08:25 -8.51967 118.75716 22805 ft 382 kts 76°
2026-05-08 08:26 -8.51356 118.78316 22379 ft 380 kts 76°
2026-05-08 08:26 -8.50754 118.80881 21958 ft 377 kts 76°
2026-05-08 08:26 -8.50153 118.83444 21538 ft 374 kts 76°
2026-05-08 08:26 -8.49562 118.85978 21122 ft 371 kts 76°
2026-05-08 08:27 -8.48969 118.88519 20711 ft 368 kts 76°
2026-05-08 08:27 -8.48389 118.91013 20306 ft 365 kts 76°
2026-05-08 08:27 -8.47812 118.93493 19901 ft 362 kts 76°
2026-05-08 08:27 -8.47240 118.95956 19498 ft 360 kts 76°
2026-05-08 08:28 -8.46675 118.98383 19098 ft 357 kts 76°
2026-05-08 08:28 -8.46112 119.00803 18699 ft 354 kts 76°
2026-05-08 08:28 -8.45549 119.03226 18299 ft 352 kts 76°
2026-05-08 08:28 -8.44992 119.05620 17899 ft 349 kts 76°
2026-05-08 08:29 -8.44443 119.07979 17504 ft 347 kts 76°
2026-05-08 08:29 -8.43892 119.10345 17104 ft 344 kts 76°
2026-05-08 08:29 -8.43343 119.12705 16703 ft 342 kts 76°
2026-05-08 08:29 -8.42806 119.15009 16310 ft 340 kts 76°
2026-05-08 08:30 -8.42266 119.17328 15913 ft 337 kts 76°
2026-05-08 08:30 -8.41734 119.19607 15523 ft 335 kts 76°
2026-05-08 08:30 -8.40673 119.24156 14740 ft 331 kts 76°
2026-05-08 08:31 -8.40148 119.26408 14354 ft 329 kts 76°
2026-05-08 08:31 -8.39626 119.28645 13969 ft 326 kts 76°
2026-05-08 08:31 -8.39105 119.30878 13584 ft 324 kts 76°
2026-05-08 08:31 -8.38594 119.33066 13205 ft 322 kts 76°
2026-05-08 08:32 -8.38079 119.35272 12822 ft 320 kts 76°
2026-05-08 08:32 -8.37564 119.37447 12443 ft 318 kts 75°
2026-05-08 08:32 -8.36940 119.39587 12063 ft 316 kts 71°
2026-05-08 08:32 -8.36168 119.41660 11684 ft 315 kts 67°
2026-05-08 08:33 -8.35329 119.43687 11306 ft 313 kts 67°
2026-05-08 08:33 -8.34487 119.45697 10932 ft 311 kts 67°
2026-05-08 08:33 -8.33649 119.47696 10556 ft 310 kts 67°
2026-05-08 08:33 -8.32816 119.49686 10182 ft 308 kts 67°
2026-05-08 08:34 -8.31986 119.51673 9871 ft 303 kts 66°
2026-05-08 08:34 -8.31189 119.53575 9819 ft 288 kts 66°
2026-05-08 08:34 -8.30425 119.55389 9730 ft 279 kts 66°
2026-05-08 08:34 -8.29668 119.57185 9381 ft 278 kts 66°
2026-05-08 08:35 -8.28910 119.58991 9058 ft 276 kts 66°
2026-05-08 08:35 -8.28169 119.60760 8742 ft 274 kts 66°
2026-05-08 08:35 -8.27437 119.62509 8431 ft 272 kts 66°
2026-05-08 08:35 -8.26695 119.64283 8123 ft 270 kts 66°
2026-05-08 08:36 -8.25969 119.66026 7819 ft 267 kts 66°
2026-05-08 08:36 -8.24645 119.69216 7259 ft 264 kts 66°
2026-05-08 08:36 -8.23931 119.70931 6954 ft 262 kts 66°
2026-05-08 08:37 -8.23229 119.72611 6666 ft 260 kts 66°
2026-05-08 08:37 -8.22523 119.74302 6377 ft 258 kts 66°
2026-05-08 08:37 -8.21830 119.75962 6101 ft 256 kts 66°
2026-05-08 08:37 -8.21141 119.77610 6025 ft 253 kts 66°
2026-05-08 08:38 -8.20482 119.79198 6007 ft 239 kts 69°
2026-05-08 08:38 -8.20187 119.80801 5981 ft 227 kts 91°
2026-05-08 08:38 -8.20438 119.82351 5801 ft 221 kts 103°
2026-05-08 08:38 -8.20848 119.83787 5716 ft 205 kts 105°
2026-05-08 08:39 -8.21247 119.85139 5452 ft 198 kts 104°
2026-05-08 08:39 -8.21692 119.86426 5119 ft 195 kts 117°
2026-05-08 08:39 -8.22588 119.87421 4776 ft 194 kts 144°
2026-05-08 08:39 -8.23830 119.87880 4490 ft 189 kts 172°
2026-05-08 08:40 -8.25055 119.87777 4196 ft 182 kts 192°
2026-05-08 08:40 -8.26235 119.87454 3879 ft 175 kts 197°
2026-05-08 08:40 -8.27381 119.87103 3547 ft 170 kts 197°
2026-05-08 08:40 -8.28480 119.86772 3313 ft 159 kts 196°
2026-05-08 08:41 -8.29527 119.86527 3170 ft 151 kts 186°
2026-05-08 08:41 -8.30570 119.86523 3085 ft 151 kts 174°
2026-05-08 08:41 -8.31618 119.86646 3022 ft 151 kts 171°
2026-05-08 08:41 -8.32652 119.86795 2780 ft 150 kts 171°
2026-05-08 08:42 -8.33687 119.86941 2604 ft 150 kts 171°
2026-05-08 08:42 -8.34718 119.87081 2406 ft 149 kts 171°
2026-05-08 08:42 -8.35744 119.87221 2210 ft 149 kts 171°
2026-05-08 08:42 -8.36923 119.87380 2031 ft 148 kts 172°
2026-05-08 08:43 -8.37956 119.87516 2029 ft 148 kts 171°
2026-05-08 08:43 -8.38975 119.87653 1867 ft 149 kts 172°
2026-05-08 08:43 -8.39989 119.87788 1676 ft 148 kts 172°
2026-05-08 08:43 -8.41007 119.87923 1482 ft 148 kts 172°
2026-05-08 08:44 -8.42025 119.88060 1284 ft 147 kts 171°
2026-05-08 08:44 -8.43034 119.88196 1083 ft 147 kts 173°
2026-05-08 08:44 -8.43995 119.88324 906 ft 147 kts 172°
2026-05-08 08:44 -8.45000 119.88460 736 ft 146 kts 173°
2026-05-08 08:45 -8.46001 119.88589 603 ft 143 kts 173°
2026-05-08 08:45 -8.46975 119.88711 322 ft 140 kts 173°
2026-05-08 08:45 -8.47900 119.88831 237 ft 122 kts 174°
2026-05-08 08:45 -8.48574 119.88918 237 ft 72 kts 171°
2026-05-08 08:46 -8.48903 119.88965 237 ft 23 kts 177°
2026-05-08 08:46 -8.48959 119.88979 237 ft 5 kts 132°
2026-05-08 08:46 -8.48994 119.88986 237 ft 6 kts 177°
2026-05-08 08:46 -8.49060 119.88989 237 ft 12 kts 177°
2026-05-08 08:47 -8.49155 119.88998 237 ft 14 kts 173°
2026-05-08 08:47 -8.49218 119.89003 237 ft 7 kts 194°
2026-05-08 08:47 -8.49242 119.88958 237 ft 8 kts 261°
2026-05-08 08:47 -8.49240 119.88900 237 ft 8 kts 317°
2026-05-08 08:48 -8.49179 119.88889 237 ft 9 kts 353°
2026-05-08 08:48 -8.49102 119.88879 237 ft 8 kts 353°
2026-05-08 08:48 -8.49039 119.88872 237 ft 9 kts 353°
2026-05-08 08:48 -8.48972 119.88864 237 ft 9 kts 353°
2026-05-08 08:49 -8.48940 119.88857 237 ft 4 kts 326°
2026-05-08 08:49 -8.48936 119.88827 237 ft 5 kts 260°
2026-05-08 08:49 -8.48939 119.88805 237 ft 0 kts 262°
2026-05-08 08:49 -8.48940 119.88802 237 ft 0 kts 262°
2026-05-08 08:54 -8.48844 119.88821 237 ft 0 kts 262°
2026-05-08 08:55 -8.48872 119.88786 237 ft 0 kts 262°